Location: Munkebjergskolens Observatorium
(55.3864°N, 10.3987°E)
Time: 18:27:36
(UTC+02:00)

JY1SAT - Pass Details

Date: 06 April 2023
Orbit: 555 x 574 km, 97.6° (Epoch: 04 June)

Event Time Altitude Azimuth Distance (km) Brightness Sun altitude
Exits shadow 23:36:26 16° 245° (WSW) 1,519 ? -24.3°
Maximum altitude 23:37:49 19° 271° (W) 1,399 ? -24.4°
Drops below altitude 10° 23:40:43 10° 316° (NW) 1,881 ? -24.6°
Sets 23:43:26 0° 335° (NNW) 2,789 ? -24.8°
